Date String (YYYY-MM-DD hh:mm:ss) UTC,Instrument flags,Ambient pressure (hPa),Sample flow (lpm),Bypass flow (lpm),Sample temperature (°C),Ambient temperature (°C),ASC tube jacket temperature (°C),LED temperature (°C),Box temperature (°C),Sample RH (%),Span deviation,Mass concentration (μg/m³),Mass concentration (μg/m³),Mass concentration (μg/m³)
DateTimeUTC,F1_M11,P_M11,Q1_M11,Q2_M11,T1_M11,T2_M11,T3_M11,T4_M11,T5_M11,U1_M11,ZSPAN_M11,X0_M11,X2_M11,X1_M11
2022-01-23 00:00:00,,0830.0,4.99,0.00,25.5,24.7,00.0,34.6,27.1,11.4,0000.0,0009.66,0005.57,0005.21
2022-01-23 00:01:00,,0830.1,5.00,0.00,25.4,24.6,00.0,34.6,27.1,11.3,0000.0,0009.82,0005.58,0005.23
2022-01-23 00:02:00,,0830.1,5.00,0.00,25.4,24.6,00.0,34.6,27.1,11.3,0000.0,0010.20,0005.60,0005.23
2022-01-23 00:03:00,,0830.1,5.00,0.00,25.4,24.6,00.0,34.6,27.1,11.4,0000.0,0010.11,0005.59,0005.23
2022-01-23 00:04:00,,0830.1,4.99,0.00,25.3,24.6,00.0,34.6,27.0,11.4,0000.0,0009.69,0005.58,0005.24
2022-01-23 00:05:00,,0830.1,5.01,0.00,25.3,24.5,00.0,34.5,27.0,11.4,0000.0,0009.78,0005.57,0005.24
2022-01-23 00:06:00,,0830.1,5.00,0.00,25.3,24.5,00.0,34.5,27.0,11.5,0000.0,0009.85,0005.57,0005.23
2022-01-23 00:07:00,,0830.1,5.00,0.00,25.3,24.5,00.0,34.5,26.9,11.4,0000.0,0008.96,0005.57,0005.22
2022-01-23 00:08:00,,0830.1,5.01,0.00,25.2,24.5,00.0,34.4,26.9,11.4,0000.0,0009.25,0005.56,0005.22
2022-01-23 00:09:00,,0830.2,5.01,0.00,25.2,24.5,00.0,34.4,26.9,11.4,0000.0,0009.18,0005.54,0005.21
2022-01-23 00:10:00,,0830.2,5.00,0.00,25.2,24.5,00.0,34.4,26.9,11.4,0000.0,0010.00,0005.55,0005.21
2022-01-23 00:11:00,,0830.1,4.99,0.00,25.2,24.5,00.0,34.4,26.9,11.4,0000.0,0010.09,0005.55,0005.20
2022-01-23 00:12:00,,0830.2,5.00,0.00,25.2,24.5,00.0,34.4,27.0,11.4,0000.0,0009.88,0005.54,0005.19
2022-01-23 00:13:00,,0830.2,5.00,0.00,25.2,24.5,00.0,34.4,27.0,11.4,0000.0,0009.43,0005.50,0005.18
2022-01-23 00:14:00,,0830.2,5.02,0.00,25.3,24.6,00.0,34.4,27.0,11.3,0000.0,0009.35,0005.50,0005.17
2022-01-23 00:15:00,,0830.2,5.00,0.00,25.3,24.6,00.0,34.3,27.0,11.3,0000.0,0009.36,0005.49,0005.15
2022-01-23 00:16:00,,0830.2,5.00,0.00,25.3,24.6,00.0,34.3,27.1,11.3,0000.0,0009.10,0005.47,0005.14
2022-01-23 00:17:00,,0830.2,5.01,0.00,25.3,24.6,00.0,34.3,27.1,11.3,0000.0,0009.09,0005.45,0005.15
2022-01-23 00:18:00,,0830.3,5.00,0.00,25.3,24.6,00.0,34.3,27.1,11.3,0000.0,0009.11,0005.44,0005.13
2022-01-23 00:19:00,,0830.2,5.00,0.00,25.3,24.7,00.0,34.3,27.1,11.2,0000.0,0008.70,0005.41,0005.11
2022-01-23 00:20:00,,0830.3,4.99,0.00,25.3,24.7,00.0,34.3,27.1,11.2,0000.0,0008.58,0005.36,0005.09
2022-01-23 00:21:00,,0830.2,5.00,0.00,25.3,24.7,00.0,34.3,27.1,11.2,0000.0,0007.83,0005.30,0005.06
2022-01-23 00:22:00,,0830.3,5.00,0.00,25.3,24.7,00.0,34.3,27.1,11.2,0000.0,0007.78,0005.29,0005.04
2022-01-23 00:23:00,,0830.3,5.00,0.00,25.3,24.6,00.0,34.3,27.1,11.2,0000.0,0007.80,0005.29,0005.03
2022-01-23 00:24:00,,0830.3,5.00,0.00,25.3,24.6,00.0,34.3,27.1,11.1,0000.0,0007.82,0005.29,0005.02
2022-01-23 00:25:00,,0830.3,5.00,0.00,25.3,24.6,00.0,34.3,27.1,11.1,0000.0,0007.77,0005.27,0004.99
2022-01-23 00:26:00,,0830.4,5.00,0.00,25.3,24.6,00.0,34.3,27.0,11.1,0000.0,0007.72,0005.25,0004.99
2022-01-23 00:27:00,,0830.4,4.99,0.00,25.3,24.6,00.0,34.3,27.0,11.1,0000.0,0008.30,0005.25,0004.99
2022-01-23 00:28:00,,0830.4,5.00,0.00,25.3,24.6,00.0,34.3,27.0,11.1,0000.0,0008.19,0005.23,0004.97
2022-01-23 00:29:00,,0830.4,5.01,0.00,25.3,24.6,00.0,34.3,27.0,11.1,0000.0,0008.13,0005.22,0004.96
2022-01-23 00:30:00,,0830.4,5.00,0.00,25.2,24.6,00.0,34.3,27.0,11.1,0000.0,0008.22,0005.25,0004.97
2022-01-23 00:31:00,,0830.3,5.00,0.00,25.2,24.6,00.0,34.3,27.0,11.2,0000.0,0008.24,0005.25,0004.96
2022-01-23 00:32:00,,0830.4,5.00,0.00,25.2,24.6,00.0,34.3,27.0,11.2,0000.0,0008.05,0005.23,0004.95
2022-01-23 00:33:00,,0830.4,5.00,0.00,25.2,24.5,00.0,34.2,27.0,11.2,0000.0,0007.89,0005.18,0004.92
2022-01-23 00:34:00,,0830.4,5.00,0.00,25.2,24.5,00.0,34.2,27.0,11.1,0000.0,0007.79,0005.12,0004.89
2022-01-23 00:35:00,,0830.4,4.99,0.00,25.2,24.5,00.0,34.2,27.0,11.2,0000.0,0007.74,0005.09,0004.86
2022-01-23 00:36:00,,0830.4,5.00,0.00,25.2,24.5,00.0,34.2,27.0,11.1,0000.0,0007.72,0005.06,0004.84
2022-01-23 00:37:00,,0830.4,5.00,0.00,25.2,24.5,00.0,34.2,27.0,11.2,0000.0,0007.72,0005.05,0004.81
2022-01-23 00:38:00,,0830.4,5.00,0.00,25.2,24.5,00.0,34.2,26.9,11.2,0000.0,0006.86,0005.01,0004.77
2022-01-23 00:39:00,,0830.3,4.99,0.00,25.2,24.5,00.0,34.2,26.9,11.4,0000.0,0006.82,0004.98,0004.75
2022-01-23 00:40:00,,0830.6,5.01,0.00,25.2,24.5,00.0,34.2,26.9,11.5,0000.0,0006.90,0004.95,0004.71
2022-01-23 00:41:00,,0830.4,5.00,0.00,25.1,24.4,00.0,34.2,26.9,11.5,0000.0,0006.75,0004.90,0004.67
2022-01-23 00:42:00,,0830.4,5.00,0.00,25.1,24.4,00.0,34.2,26.9,11.4,0000.0,0006.89,0004.88,0004.63
2022-01-23 00:43:00,,0830.5,5.00,0.00,25.1,24.4,00.0,34.2,26.9,11.4,0000.0,0006.91,0004.87,0004.59
2022-01-23 00:44:00,,0830.6,5.00,0.00,25.1,24.4,00.0,34.2,26.9,11.4,0000.0,0006.90,0004.84,0004.56
2022-01-23 00:45:00,,0830.5,4.99,0.00,25.1,24.4,00.0,34.2,26.9,11.4,0000.0,0006.90,0004.81,0004.53
2022-01-23 00:46:00,,0830.6,5.01,0.00,25.1,24.4,00.0,34.2,26.9,11.5,0000.0,0006.90,0004.78,0004.49
2022-01-23 00:47:00,,0830.5,4.99,0.00,25.1,24.4,00.0,34.2,26.9,11.6,0000.0,0006.82,0004.75,0004.46
2022-01-23 00:48:00,,0830.5,5.00,0.00,25.1,24.4,00.0,34.1,26.8,11.5,0000.0,0006.73,0004.70,0004.42
2022-01-23 00:49:00,,0830.5,5.01,0.00,25.1,24.4,00.0,34.1,26.8,11.5,0000.0,0006.84,0004.65,0004.39
2022-01-23 00:50:00,,0830.6,5.00,0.00,25.1,24.4,00.0,34.1,26.8,11.4,0000.0,0007.32,0004.60,0004.35
2022-01-23 00:51:00,,0830.5,5.00,0.00,25.1,24.4,00.0,34.1,26.8,11.4,0000.0,0007.07,0004.56,0004.33
2022-01-23 00:52:00,,0830.6,5.00,0.00,25.1,24.3,00.0,34.1,26.8,11.3,0000.0,0007.05,0004.56,0004.33
2022-01-23 00:53:00,,0830.6,4.99,0.00,25.0,24.3,00.0,34.1,26.8,11.3,0000.0,0006.86,0004.55,0004.34
2022-01-23 00:54:00,,0830.6,5.00,0.00,25.0,24.3,00.0,34.1,26.8,11.3,0000.0,0007.45,0004.54,0004.35
2022-01-23 00:55:00,,0830.6,5.01,0.00,25.0,24.3,00.0,34.1,26.8,11.3,0000.0,0007.52,0004.57,0004.38
2022-01-23 00:56:00,,0830.6,5.01,0.00,25.0,24.3,00.0,34.1,26.8,11.4,0000.0,0007.56,0004.58,0004.39
2022-01-23 00:57:00,,0830.5,5.00,0.00,25.0,24.3,00.0,34.1,26.7,11.3,0000.0,0007.56,0004.58,0004.41
2022-01-23 00:58:00,,0830.5,5.00,0.00,25.0,24.2,00.0,34.0,26.7,11.3,0000.0,0007.62,0004.60,0004.41
2022-01-23 00:59:00,,0830.6,5.00,0.00,25.0,24.2,00.0,34.0,26.7,11.3,0000.0,0007.63,0004.63,0004.42
